GW0870 Weather Reports


time (UTC)temp
F
wind
direction
speed
knots
gust
knots
rain 1hr
in
rain 24hr
in
rain mn
in
humidity
%
barometer
mb
20260904194603 98 204 0.9 2.6 0.00 0.00 0.00 49 1014.7
20260904193110 98 196 1.7 6.1 0.00 0.00 0.00 48 1015.1
20260904191554 98 0 1.7 4.3 0.00 0.00 0.00 48 1015.4
20260904190059 97 155 1.7 3.5 0.00 0.00 0.00 49 1015.6
20260904184559 99 205 0.0 1.7 0.00 0.00 0.00 49 1015.7
20260904183108 98 0 0.0 2.6 0.00 0.00 0.00 51 1015.9
20260904181602 96 138 0.9 3.5 0.00 0.00 0.00 53 1016.0
20260904180123 95 153 1.7 3.5 0.00 0.00 0.00 55 1016.2
20260904174605 96 152 0.9 3.5 0.00 0.00 0.00 53 1016.5
20260904173059 96 0 0.0 3.5 0.00 0.00 0.00 52 1016.6
20260904171556 94 202 0.0 4.3 0.00 0.00 0.00 56 1016.7
20260904170058 94 151 0.9 4.3 0.00 0.00 0.00 58 1016.8
20260904164603 94 14 0.0 4.3 0.00 0.00 0.00 61 1016.8
20260904163059 93 341 0.0 3.5 0.00 0.00 0.00 61 1017.1
20260904161610 93 222 0.0 1.7 0.00 0.00 0.00 61 1017.3
20260904160054 91 196 0.9 4.3 0.00 0.00 0.00 64 1017.5
20260904154552 91 197 0.9 4.3 0.00 0.00 0.00 64 1017.7
20260904153101 89 0 1.7 4.3 0.00 0.00 0.00 67 1017.8
20260904151557 89 191 0.9 3.5 0.00 0.00 0.00 68 1017.7
20260904150059 89 0 0.0 2.6 0.00 0.00 0.00 69 1017.7
20260904144601 87 205 1.7 4.3 0.00 0.00 0.00 69 1017.7
20260904143100 87 190 0.9 3.5 0.00 0.00 0.00 72 1017.9
20260904141553 85 157 0.9 4.3 0.00 0.00 0.00 73 1017.8
20260904140058 85 161 1.7 4.3 0.00 0.00 0.00 76 1017.8
20260904134553 83 223 0.9 5.2 0.00 0.00 0.00 78 1017.6
20260904133057 82 233 0.9 5.2 0.00 0.00 0.00 80 1017.6
20260904131554 81 235 0.9 5.2 0.00 0.00 0.00 83 1017.6
20260904130053 79 180 0.0 2.6 0.00 0.00 0.00 87 1017.6
20260904124609 76 150 0.0 1.7 0.00 0.00 0.00 91 1017.6
20260904123056 75 0 0.0 0.9 0.00 0.00 0.00 93 1017.6
20260904121553 73 0 0.0 0.9 0.00 0.00 0.00 94 1017.7
20260904120107 72 0 0.0 0.0 0.00 0.00 0.00 94 1017.7
20260904114552 72 0 0.0 0.0 0.00 0.00 0.00 94 1017.6
20260904113056 71 0 0.0 0.0 0.00 0.00 0.00 94 1017.4
20260904111601 71 0 0.0 0.0 0.00 0.00 0.00 94 1017.4
20260904104556 71 0 0.0 0.0 0.00 0.00 0.00 93 1017.1
20260904103055 72 0 0.0 0.0 0.00 0.00 0.00 93 1016.9
20260904101605 72 0 0.0 0.0 0.00 0.00 0.00 93 1016.8
20260904100047 72 0 0.0 0.0 0.00 0.00 0.00 93 1016.8
20260904094553 72 0 0.0 0.0 0.00 0.00 0.00 93 1016.6
20260904093051 72 0 0.0 0.0 0.00 0.00 0.00 93 1016.5
20260904091551 73 0 0.0 0.0 0.00 0.00 0.00 93 1016.5
20260904090049 73 0 0.0 0.0 0.00 0.00 0.00 93 1016.4
20260904084552 73 0 0.0 0.0 0.00 0.00 0.00 93 1016.4
20260904083105 73 0 0.0 0.0 0.00 0.00 0.00 93 1016.3
20260904081548 73 0 0.0 0.0 0.00 0.00 0.00 93 1016.5
20260904080104 73 0 0.0 0.0 0.00 0.00 0.00 93 1016.5
20260904074557 73 0 0.0 0.0 0.00 0.00 0.00 93 1016.5
20260904073103 73 0 0.0 0.0 0.00 0.00 0.00 92 1016.5
20260904071553 74 0 0.0 0.0 0.00 0.00 0.00 92 1016.5
20260904070100 74 0 0.0 0.0 0.00 0.00 0.00 92 1016.6
20260904064607 74 0 0.0 0.0 0.00 0.00 0.00 92 1016.8
20260904063107 74 0 0.0 0.0 0.00 0.00 0.00 91 1017.1
20260904061552 75 0 0.0 0.0 0.00 0.00 0.00 91 1017.2
20260904060110 75 0 0.0 0.0 0.00 0.00 0.00 90 1017.2
20260904054555 75 0 0.0 0.0 0.00 0.00 0.00 90 1017.5
20260904053055 76 0 0.0 0.0 0.00 0.00 0.00 90 1017.5
20260904051552 76 0 0.0 0.0 0.00 0.00 0.00 90 1017.6
20260904050058 76 0 0.0 0.0 0.00 0.00 0.00 90 1017.6
20260904044553 76 0 0.0 0.0 0.00 0.00 0.00 90 1017.6
20260904043054 76 0 0.0 0.0 0.00 0.00 0.00 90 1017.5
20260904041600 76 0 0.0 0.0 0.00 0.00 0.00 90 1017.4
20260904040054 76 0 0.0 0.9 0.00 0.00 0.00 90 1017.5
20260904034552 76 0 0.0 0.0 0.00 0.00 0.00 90 1017.6
20260904033058 77 0 0.0 0.0 0.00 0.00 0.00 90 1017.5
20260904031553 77 0 0.0 0.0 0.00 0.00 0.00 90 1017.6
20260904030055 77 0 0.0 0.0 0.00 0.00 0.00 90 1017.7
20260904024601 77 0 0.0 0.0 0.00 0.00 0.00 89 1017.6
20260904023052 78 0 0.0 0.0 0.00 0.00 0.00 89 1017.7
20260904021557 78 0 0.0 0.0 0.00 0.00 0.00 88 1017.7
20260904020052 79 0 0.0 0.0 0.00 0.00 0.00 88 1017.7
20260904014553 79 0 0.0 0.0 0.00 0.00 0.00 87 1017.5
20260904013118 80 0 0.0 0.0 0.00 0.00 0.00 85 1017.4
20260904011554 80 0 0.0 0.0 0.00 0.00 0.00 85 1017.2
20260904010050 81 0 0.0 0.0 0.00 0.00 0.00 83 1017.0
20260904004556 82 0 0.0 0.0 0.00 0.00 0.00 82 1016.7
20260904003053 82 0 0.0 0.0 0.00 0.00 0.00 80 1016.4
20260904001609 84 0 0.0 0.0 0.00 0.00 0.00 79 1016.2
20260904000048 85 0 0.0 0.0 0.00 0.00 0.00 76 1016.0
20260903234556 87 0 0.0 0.0 0.00 0.00 0.00 72 1015.8
20260903233054 89 0 0.0 0.0 0.00 0.00 0.00 67 1015.9
20260903231608 91 0 0.0 0.9 0.00 0.00 0.00 65 1015.7
20260903230057 93 0 0.0 0.9 0.00 0.00 0.00 60 1015.7
20260903224603 94 0 0.0 0.9 0.00 0.00 0.00 55 1015.7
20260903223058 95 0 0.0 2.6 0.00 0.00 0.00 52 1015.6
20260903221555 96 0 0.0 0.9 0.00 0.00 0.00 53 1015.8
20260903214553 95 0 0.0 1.7 0.00 0.00 0.00 56 1015.8
20260903213110 96 0 0.0 1.7 0.00 0.00 0.00 52 1015.9
20260903211556 96 206 0.0 3.5 0.00 0.00 0.00 52 1016.0
20260903210058 94 32 0.9 3.5 0.00 0.00 0.00 54 1016.1
20260903204600 94 0 0.0 1.7 0.00 0.00 0.00 54 1016.1
20260903203058 94 0 0.0 2.6 0.00 0.00 0.00 52 1016.2
20260903201554 96 0 0.0 1.7 0.00 0.00 0.00 48 1016.2
20260903200056 98 0 0.0 5.2 0.00 0.00 0.00 46 1016.3